Location: Maignaut
(43.8886°N, 0.4051°E)
Time: 06:21:35
(UTC+00:00)

USA 238 DEB - Pass Details

Date: 27 February 2020
Orbit: 1020 x 1192 km, 63.4° (Epoch: 12 March)

Event Time Altitude Azimuth Distance (km) Brightness Sun altitude
Rises 19:58:01 0° 323° (NW) 3,943 7.4 -24.9°
Reaches altitude 10° 20:00:41 10° 326° (NW) 3,006 6.6 -25.4°
Maximum altitude 20:07:54 73° 51° (NE) 1,204 3.7 -26.6°
Enters shadow 20:09:20 58° 112° (ESE) 1,331 3.8 -26.9°
